Regional Weather Roundup
Issued by NWS Goodland, KS

Home | Current Version | Previous Version | Text Only | Print | Product List | Glossary Off
Versions: 1 2 3 4 5 6 7 8 9 10 11 12 13 14 15 16 17 18 19 20 21 22 23 24 25 26 27 28 29 30 31 32 33 34 35 36 37 38 39 40 41 42 43 44 45 46 47 48 49 50

000
ASUS43 KGLD 300359
RWRGLD

GOODLAND FORECAST AREA HOURLY WEATHER ROUNDUP
NATIONAL WEATHER SERVICE GOODLAND KS
1000 PM MDT SAT AUG 29 2015

...OFFICIAL OBSERVATIONS...

CITY           SKY/WX    TMP DP  RH WIND       PRES   REMARKS
GOODLAND KS    CLEAR     66  49  54 S10       30.13S
HILL CITY KS   CLEAR     64  55  72 E3        30.08R
IMPERIAL NEB   CLEAR     67  51  56 SE12      30.08S
MCCOOK NEB     CLEAR     71  55  56 S7        30.07S
AKRON CO       CLEAR     70  38  31 S13       30.14S
BURLINGTON CO  CLEAR     63  45  51 S10       30.16S
LIMON CO       PTCLDY    59  42  53 SE7       30.22S
$$

...UNOFFICIAL OBSERVATIONS...

CITY           SKY/WX    TMP DP  RH WIND       PRES   REMARKS
COLBY KS       CLEAR     72  55  56 SE10      30.13S
GOVE KS          N/A     67  32  27 MISG        N/A
LENORA KS        N/A     68  32  26 MISG        N/A
NORTON KS      CLEAR     68  55  64 SE5       30.07S
SHARON SPRINGS   N/A     67  51  56 S10         N/A
TRENTON NEB      N/A     69  32  25 S8          N/A
YUMA CO          N/A     65  46  51 CALM        N/A
$$


USA.gov is the U.S. government's official web portal to all federal, state and local government web resources and services.